Content
SEND FEEDBACK

Daily
Averages
Monthly
Summary
United States of America

TALLAPOOSA, GEORGIA


Home > North America > United States > Georgia
Elevation: 100 feet     Latitude: 33 46N     Longitude: 085 18W

WEATHER
 
SELECT A DAY
Number of Records: 156,777;   Date Range: 1/29/10 - 7/10/14
 
SHARE

PRINT THIS DATA

[ ← Previous Day ]
WEATHER ALMANAC - JANUARY 31, 2013
[ Next Day → ]
[ °C ]   °F
Weather ElementAverageHighLow
Temperature39 °F48.2 °F (4:15 pm)32 °F (6:15 am)
Dewpoint26.8 °F33.8 °F (12:35 am)23 °F (1:15 pm)
Humidity64.1 %87 % (12:55 am)40 % (1:55 pm)
Barometer28.75 in30.17 in (9:55 pm) (7:00 pm)
Wind Speed7.4 mph17.3 mph (1:55 am)
Wind Gust25.3 mph (1:55 am)
Weather ElementAverage
Visibility10 mi
Wind DirectionWSW (260.1 °)

Weather ElementTotal
Precipitation---
Heating Degree Days24.9 (Base 65)
Averaged from 67 records on January 31, 2013
WEATHER CONDITIONS BREAKOUT
WIND DIRECTION BREAKOUT
WEATHER BY HOUR - JANUARY 31, 2013
[ °C ]   °F
Local TimeTemperatureDewpointHumidityBarometerVisibilityWind DirectionWind SpeedGust SpeedPrecipitationEventsConditions
12:35 AM41.0 °F33.8 °F76 %10.0 miWest (270°)10.4 mph18.4 mphDrizzle
12:55 AM37.4 °F33.8 °F87 %10.0 miWNW (290°)11.5 mph24.2 mphRainLight Rain
1:15 AM37.4 °F33.8 °F87 %10.0 miWNW (300°)12.7 mph21.9 mphOvercast
1:55 AM35.6 °F26.6 °F70 %29.95 in10.0 miWNW (300°)17.3 mph25.3 mphScattered Clouds
2:15 AM35.6 °F26.6 °F70 %29.96 in10.0 miWNW (290°)6.9 mph19.6 mphClear
2:35 AM35.6 °F26.6 °F70 %29.97 in10.0 miWNW (290°)5.8 mph19.6 mphMostly Cloudy
2:55 AM35.6 °F26.6 °F70 %29.98 in10.0 miWest (280°)8.1 mphOvercast
3:15 AM35.6 °F26.6 °F70 %29.99 in10.0 miWest (280°)10.4 mph20.7 mphOvercast
3:55 AM33.8 °F26.6 °F75 %29.99 in10.0 miWest (280°)8.1 mphOvercast
4:15 AM33.8 °F26.6 °F75 %29.99 in10.0 miWest (280°)5.8 mphScattered Clouds
4:35 AM33.8 °F28.4 °F81 %30.00 in10.0 miWest (280°)3.5 mphMostly Cloudy
4:55 AM33.8 °F28.4 °F81 %30.01 in10.0 miWest (280°)4.6 mphOvercast
5:15 AM33.8 °F28.4 °F81 %30.02 in10.0 miWest (260°)4.6 mphOvercast
5:35 AM33.8 °F28.4 °F81 %30.02 in10.0 miWest (260°)5.8 mphMostly Cloudy
5:55 AM33.8 °F28.4 °F81 %30.04 in10.0 miWest (270°)4.6 mphScattered Clouds
6:15 AM32.0 °F28.4 °F87 %30.03 in10.0 miWNW (290°)6.9 mphClear
6:35 AM32.0 °F28.4 °F87 %30.03 in10.0 miWNW (290°)6.9 mphClear
6:55 AM32.0 °F28.4 °F87 %30.03 in10.0 miWNW (290°)5.8 mphClear
7:15 AM32.0 °F28.4 °F87 %30.04 in10.0 miWest (270°)8.1 mphClear
7:35 AM32.0 °F28.4 °F87 %30.05 in10.0 miWNW (290°)8.1 mphClear
7:55 AM32.0 °F28.4 °F87 %30.06 in10.0 miWest (280°)9.2 mphClear
8:15 AM32.0 °F28.4 °F87 %30.06 in10.0 miWNW (300°)8.1 mphClear
8:35 AM33.8 °F28.4 °F81 %30.06 in10.0 miWNW (290°)8.1 mphClear
8:55 AM33.8 °F26.6 °F75 %30.07 in10.0 miWNW (290°)8.1 mph16.1 mphClear
9:15 AM35.6 °F26.6 °F70 %30.09 in10.0 miWNW (290°)12.7 mph16.1 mphClear
9:35 AM35.6 °F28.4 °F75 %30.10 in10.0 miWNW (300°)6.9 mphScattered Clouds
9:55 AM37.4 °F28.4 °F70 %30.10 in10.0 miWest (280°)10.4 mph16.1 mphScattered Clouds
10:15 AM37.4 °F28.4 °F70 %30.11 in10.0 miWest (270°)8.1 mphClear
10:35 AM37.4 °F28.4 °F70 %30.11 in10.0 miWNW (300°)10.4 mph17.3 mphClear
10:55 AM41.0 °F28.4 °F61 %30.13 in10.0 miWest (280°)12.7 mph18.4 mphClear
11:15 AM41.0 °F28.4 °F61 %30.14 in10.0 miWest (280°)11.5 mph17.3 mphClear
11:35 AM41.0 °F26.6 °F57 %30.14 in10.0 miWNW (290°)10.4 mph19.6 mphClear
11:55 AM41.0 °F26.6 °F57 %30.14 in10.0 miWNW (290°)11.5 mph18.4 mphClear
12:15 PM42.8 °F26.6 °F53 %30.15 in10.0 miWNW (300°)10.4 mph20.7 mphClear
12:35 PM42.8 °F26.6 °F53 %30.14 in10.0 miWest (280°)11.5 mph17.3 mphClear
12:55 PM44.6 °F26.6 °F49 %30.14 in10.0 miWest (280°)12.7 mph18.4 mphClear
1:15 PM44.6 °F23.0 °F43 %30.13 in10.0 miWest (280°)10.4 mph20.7 mphClear
1:35 PM44.6 °F24.8 °F46 %30.13 in10.0 miNW (310°)12.7 mph17.3 mphClear
1:55 PM46.4 °F23.0 °F40 %30.13 in10.0 miWNW (300°)13.8 mph21.9 mphClear
2:15 PM46.4 °F23.0 °F40 %30.13 in10.0 miNW (310°)11.5 mph18.4 mphClear
2:35 PM46.4 °F23.0 °F40 %30.12 in10.0 miWNW (290°)9.2 mph19.6 mphClear
2:55 PM46.4 °F23.0 °F40 %30.13 in10.0 miWNW (290°)8.1 mph18.4 mphClear
3:15 PM46.4 °F23.0 °F40 %30.13 in10.0 miNW (310°)10.4 mph16.1 mphClear
3:35 PM46.4 °F23.0 °F40 %30.12 in10.0 miNNW (330°)10.4 mphClear
3:55 PM46.4 °F23.0 °F40 %30.12 in10.0 miWNW (300°)11.5 mph20.7 mphClear
4:15 PM48.2 °F24.8 °F40 %30.12 in10.0 miWNW (300°)5.8 mphClear
4:55 PM46.4 °F23.0 °F40 %30.12 in10.0 miWNW (290°)8.1 mphClear
5:15 PM46.4 °F23.0 °F40 %30.13 in10.0 miWNW (290°)6.9 mphClear
5:35 PM46.4 °F23.0 °F40 %30.13 in10.0 miWSW (250°)5.8 mphClear
5:55 PM44.6 °F23.0 °F43 %30.13 in10.0 miWest (270°)3.5 mphClear
6:15 PM42.8 °F24.8 °F49 %30.13 in10.0 miCalmClear
6:35 PM42.8 °F24.8 °F49 %30.13 in10.0 miWSW (250°)3.5 mphClear
6:55 PM42.8 °F26.6 °F53 %30.13 in10.0 miWSW (240°)3.5 mphClear
7:15 PM42.8 °F26.6 °F53 %30.14 in10.0 miWSW (240°)3.5 mphClear
7:35 PM41.0 °F26.6 °F57 %30.14 in10.0 miSW (230°)3.5 mphClear
7:55 PM39.2 °F26.6 °F61 %30.14 in10.0 miSW (230°)3.5 mphClear
8:15 PM39.2 °F26.6 °F61 %30.14 in10.0 miSW (220°)3.5 mphClear
8:35 PM39.2 °F26.6 °F61 %30.15 in10.0 miCalmClear
9:15 PM39.2 °F26.6 °F61 %30.16 in10.0 miCalmClear
9:35 PM37.4 °F26.6 °F65 %30.16 in10.0 miCalmClear
9:55 PM37.4 °F26.6 °F65 %30.17 in10.0 miWest (260°)3.5 mphClear
10:15 PM37.4 °F28.4 °F70 %30.17 in10.0 miWSW (240°)3.5 mphClear
10:35 PM37.4 °F28.4 °F70 %30.17 in10.0 miSW (230°)3.5 mphClear
10:55 PM37.4 °F28.4 °F70 %30.17 in10.0 miSW (230°)4.6 mphClear
11:15 PM37.4 °F28.4 °F70 %30.17 in10.0 miSW (230°)4.6 mphClear
11:35 PM37.4 °F28.4 °F70 %30.17 in10.0 miWSW (240°)3.5 mphClear
11:55 PM37.4 °F28.4 °F70 %30.17 in10.0 miSW (230°)5.8 mphClear
Hourly data recorded from KCTJ, located miles away from Tallapoosa, Georgia







STORIES FROM OUR PARTNERS